Location: Elbart
(49.6135°N, 11.9134°E)
Time: 00:40:05
(UTC+00:00)

Cosmos 1153 Rocket - Pass Details

Date: 09 April 2020
Orbit: 954 x 1006 km, 82.9° (Epoch: 03 June)

Event Time Altitude Azimuth Distance (km) Brightness Sun altitude
Rises 22:00:09 0° 350° (N) 3,706 8.7 -30.2°
Reaches altitude 10° 22:02:40 10° 351° (N) 2,761 7.7 -30.3°
Enters shadow 22:08:49 84° 360° (N) 1,009 4.5 -30.7°
